iso_date,epoch_date,Year,Hour,Min,DOY,POS_DOY,Lat,Lon,BP,Ts,Ta,has_bp,has_ts,has_ta,BuoyID,Buoy_Type,Buoy_Owner,Logistics,Hemisphere
2019-11-18T09:00:00Z,1574067600,2019,9,0,322.375,322.375,73.857,-63.954,1008.2,-1.81,-999.0,yes,yes,no,300234065713150,BD2GHI,AOML,CCGS_MOLLY_KOOL,North
2019-11-18T12:00:00Z,1574078400,2019,12,0,322.5,322.5,73.848,-63.977,1007.4,-1.82,-999.0,yes,yes,no,300234065713150,BD2GHI,AOML,CCGS_MOLLY_KOOL,North
2019-11-18T13:00:02Z,1574082003,2019,13,0,322.5417,322.5417,73.847,-63.989,1007.6,-1.82,-999.0,yes,yes,no,300234065713150,BD2GHI,AOML,CCGS_MOLLY_KOOL,North
2019-11-18T13:59:57Z,1574085597,2019,14,0,322.5833,322.5833,73.846,-63.999,1006.4,-1.84,-999.0,yes,yes,no,300234065713150,BD2GHI,AOML,CCGS_MOLLY_KOOL,North
2019-11-18T16:59:57Z,1574096397,2019,17,0,322.7083,322.7083,73.836,-64.018,1005.1,-1.77,-999.0,yes,yes,no,300234065713150,BD2GHI,AOML,CCGS_MOLLY_KOOL,North
2019-11-18T18:00:00Z,1574100000,2019,18,0,322.75,322.75,73.831,-64.037,1005.5,-1.85,-999.0,yes,yes,no,300234065713150,BD2GHI,AOML,CCGS_MOLLY_KOOL,North
2019-11-18T19:00:02Z,1574103603,2019,19,0,322.7917,322.7917,73.826,-64.065,1005.4,-1.97,-999.0,yes,yes,no,300234065713150,BD2GHI,AOML,CCGS_MOLLY_KOOL,North
2019-11-18T19:59:57Z,1574107197,2019,20,0,322.8333,322.8333,73.82,-64.097,1005.2,-1.91,-999.0,yes,yes,no,300234065713150,BD2GHI,AOML,CCGS_MOLLY_KOOL,North
2019-11-18T22:00:02Z,1574114403,2019,22,0,322.9167,322.9167,73.811,-64.137,1005.1,-1.87,-999.0,yes,yes,no,300234065713150,BD2GHI,AOML,CCGS_MOLLY_KOOL,North
2019-11-18T22:59:57Z,1574117997,2019,23,0,322.9583,322.9583,73.805,-64.144,1006.3,-1.77,-999.0,yes,yes,no,300234065713150,BD2GHI,AOML,CCGS_MOLLY_KOOL,North
2019-11-19T01:00:02Z,1574125203,2019,1,0,323.0417,323.0417,73.788,-64.161,1005.1,-1.76,-999.0,yes,yes,no,300234065713150,BD2GHI,AOML,CCGS_MOLLY_KOOL,North
2019-11-19T01:59:57Z,1574128797,2019,2,0,323.0833,323.0833,73.777,-64.17,1005.2,-1.76,-999.0,yes,yes,no,300234065713150,BD2GHI,AOML,CCGS_MOLLY_KOOL,North
2019-11-19T03:00:00Z,1574132400,2019,3,0,323.125,323.125,73.765,-64.186,1005.1,-1.78,-999.0,yes,yes,no,300234065713150,BD2GHI,AOML,CCGS_MOLLY_KOOL,North
2019-11-19T04:00:02Z,1574136003,2019,4,0,323.1667,323.1667,73.756,-64.208,1005.3,-1.79,-999.0,yes,yes,no,300234065713150,BD2GHI,AOML,CCGS_MOLLY_KOOL,North
2019-11-19T07:59:57Z,1574150397,2019,8,0,323.3333,323.3333,73.73,-64.309,1005.1,-1.79,-999.0,yes,yes,no,300234065713150,BD2GHI,AOML,CCGS_MOLLY_KOOL,North
2019-11-19T09:00:00Z,1574154000,2019,9,0,323.375,323.375,73.723,-64.336,1005.2,-1.74,-999.0,yes,yes,no,300234065713150,BD2GHI,AOML,CCGS_MOLLY_KOOL,North
2019-11-19T10:00:02Z,1574157603,2019,10,0,323.4167,323.4167,73.713,-64.346,1005.7,-1.87,-999.0,yes,yes,no,300234065713150,BD2GHI,AOML,CCGS_MOLLY_KOOL,North
2019-11-19T10:59:57Z,1574161197,2019,11,0,323.4583,323.4583,73.699,-64.351,1005.6,-1.57,-999.0,yes,yes,no,300234065713150,BD2GHI,AOML,CCGS_MOLLY_KOOL,North
2019-11-19T12:00:00Z,1574164800,2019,12,0,323.5,323.5,73.69,-64.36,1007.8,-1.56,-999.0,yes,yes,no,300234065713150,BD2GHI,AOML,CCGS_MOLLY_KOOL,North
2019-11-19T13:00:02Z,1574168403,2019,13,0,323.5417,323.5417,73.683,-64.367,1008.7,-1.39,-999.0,yes,yes,no,300234065713150,BD2GHI,AOML,CCGS_MOLLY_KOOL,North
2019-11-19T15:00:00Z,1574175600,2019,15,0,323.625,323.625,73.665,-64.359,1007.4,-1.66,-999.0,yes,yes,no,300234065713150,BD2GHI,AOML,CCGS_MOLLY_KOOL,North
2019-11-19T16:00:02Z,1574179203,2019,16,0,323.6667,323.6667,73.66,-64.365,1006.7,-1.67,-999.0,yes,yes,no,300234065713150,BD2GHI,AOML,CCGS_MOLLY_KOOL,North
2019-11-19T16:59:57Z,1574182797,2019,17,0,323.7083,323.7083,73.655,-64.358,1006.2,-1.61,-999.0,yes,yes,no,300234065713150,BD2GHI,AOML,CCGS_MOLLY_KOOL,North
2019-11-19T18:00:00Z,1574186400,2019,18,0,323.75,323.75,73.651,-64.342,1006.8,-1.9,-999.0,yes,yes,no,300234065713150,BD2GHI,AOML,CCGS_MOLLY_KOOL,North
2019-11-19T19:59:57Z,1574193597,2019,20,0,323.8333,323.8333,73.64,-64.284,1007.4,-1.57,-999.0,yes,yes,no,300234065713150,BD2GHI,AOML,CCGS_MOLLY_KOOL,North
2019-11-19T21:00:00Z,1574197200,2019,21,0,323.875,323.875,73.639,-64.255,1008.9,-2.23,-999.0,yes,yes,no,300234065713150,BD2GHI,AOML,CCGS_MOLLY_KOOL,North
2019-11-19T22:00:02Z,1574200803,2019,22,0,323.9167,323.9167,73.633,-64.22,1006.5,-1.49,-999.0,yes,yes,no,300234065713150,BD2GHI,AOML,CCGS_MOLLY_KOOL,North
2019-11-19T22:59:57Z,1574204397,2019,23,0,323.9583,323.9583,73.625,-64.188,1005.0,-1.39,-999.0,yes,yes,no,300234065713150,BD2GHI,AOML,CCGS_MOLLY_KOOL,North
2019-11-20T00:00:00Z,1574208000,2019,0,0,324.0,324.0,73.616,-64.167,1005.6,-3.26,-999.0,yes,yes,no,300234065713150,BD2GHI,AOML,CCGS_MOLLY_KOOL,North
2019-11-20T01:00:02Z,1574211603,2019,1,0,324.0417,324.0417,73.611,-64.166,1010.7,-4.91,-999.0,yes,yes,no,300234065713150,BD2GHI,AOML,CCGS_MOLLY_KOOL,North
2019-11-20T01:59:57Z,1574215197,2019,2,0,324.0833,324.0833,73.604,-64.158,1007.7,-1.36,-999.0,yes,yes,no,300234065713150,BD2GHI,AOML,CCGS_MOLLY_KOOL,North
2019-11-20T03:00:00Z,1574218800,2019,3,0,324.125,324.125,73.599,-64.153,1006.8,-1.6,-999.0,yes,yes,no,300234065713150,BD2GHI,AOML,CCGS_MOLLY_KOOL,North
2019-11-20T04:00:02Z,1574222403,2019,4,0,324.1667,324.1667,73.595,-64.155,1008.0,-1.3,-999.0,yes,yes,no,300234065713150,BD2GHI,AOML,CCGS_MOLLY_KOOL,North
2019-11-20T04:59:57Z,1574225997,2019,5,0,324.2083,324.2083,73.589,-64.162,1006.4,-1.28,-999.0,yes,yes,no,300234065713150,BD2GHI,AOML,CCGS_MOLLY_KOOL,North
2019-11-20T06:00:00Z,1574229600,2019,6,0,324.25,324.25,73.585,-64.177,1004.9,-1.24,-999.0,yes,yes,no,300234065713150,BD2GHI,AOML,CCGS_MOLLY_KOOL,North
2019-11-20T07:00:02Z,1574233203,2019,7,0,324.2917,324.2917,73.584,-64.18,1005.0,-1.02,-999.0,yes,yes,no,300234065713150,BD2GHI,AOML,CCGS_MOLLY_KOOL,North
2019-11-20T07:59:57Z,1574236797,2019,8,0,324.3333,324.3333,73.583,-64.178,1005.0,-1.12,-999.0,yes,yes,no,300234065713150,BD2GHI,AOML,CCGS_MOLLY_KOOL,North
2019-11-20T09:00:00Z,1574240400,2019,9,0,324.375,324.375,73.582,-64.175,1009.3,-1.02,-999.0,yes,yes,no,300234065713150,BD2GHI,AOML,CCGS_MOLLY_KOOL,North
2019-11-20T10:00:02Z,1574244003,2019,10,0,324.4167,324.4167,73.579,-64.172,1009.8,-1.21,-999.0,yes,yes,no,300234065713150,BD2GHI,AOML,CCGS_MOLLY_KOOL,North
2019-11-20T10:59:57Z,1574247597,2019,11,0,324.4583,324.4583,73.573,-64.168,1011.3,-1.21,-999.0,yes,yes,no,300234065713150,BD2GHI,AOML,CCGS_MOLLY_KOOL,North
2019-11-20T12:00:00Z,1574251200,2019,12,0,324.5,324.5,73.567,-64.162,1009.5,-1.69,-999.0,yes,yes,no,300234065713150,BD2GHI,AOML,CCGS_MOLLY_KOOL,North
2019-11-20T13:00:02Z,1574254803,2019,13,0,324.5417,324.5417,73.56,-64.152,1007.8,-4.25,-999.0,yes,yes,no,300234065713150,BD2GHI,AOML,CCGS_MOLLY_KOOL,North
2019-11-20T13:59:57Z,1574258397,2019,14,0,324.5833,324.5833,73.554,-64.137,1009.4,-1.14,-999.0,yes,yes,no,300234065713150,BD2GHI,AOML,CCGS_MOLLY_KOOL,North
2019-11-20T15:00:00Z,1574262000,2019,15,0,324.625,324.625,73.552,-64.101,1008.6,-1.25,-999.0,yes,yes,no,300234065713150,BD2GHI,AOML,CCGS_MOLLY_KOOL,North
2019-11-20T16:00:02Z,1574265603,2019,16,0,324.6667,324.6667,73.553,-64.077,1012.2,-1.28,-999.0,yes,yes,no,300234065713150,BD2GHI,AOML,CCGS_MOLLY_KOOL,North
2019-11-20T16:59:57Z,1574269197,2019,17,0,324.7083,324.7083,73.556,-64.071,1013.6,-1.25,-999.0,yes,yes,no,300234065713150,BD2GHI,AOML,CCGS_MOLLY_KOOL,North
2019-11-20T18:00:00Z,1574272800,2019,18,0,324.75,324.75,73.561,-64.063,1013.6,-1.47,-999.0,yes,yes,no,300234065713150,BD2GHI,AOML,CCGS_MOLLY_KOOL,North
2019-11-20T19:00:02Z,1574276403,2019,19,0,324.7917,324.7917,73.565,-64.053,1014.3,-1.16,-999.0,yes,yes,no,300234065713150,BD2GHI,AOML,CCGS_MOLLY_KOOL,North
2019-11-20T19:59:57Z,1574279997,2019,20,0,324.8333,324.8333,73.569,-64.041,1015.9,-1.15,-999.0,yes,yes,no,300234065713150,BD2GHI,AOML,CCGS_MOLLY_KOOL,North
2019-11-20T21:00:00Z,1574283600,2019,21,0,324.875,324.875,73.572,-64.028,1016.5,-1.13,-999.0,yes,yes,no,300234065713150,BD2GHI,AOML,CCGS_MOLLY_KOOL,North
2019-11-20T22:00:02Z,1574287203,2019,22,0,324.9167,324.9167,73.574,-64.013,1016.5,-1.15,-999.0,yes,yes,no,300234065713150,BD2GHI,AOML,CCGS_MOLLY_KOOL,North
2019-11-20T22:59:57Z,1574290797,2019,23,0,324.9583,324.9583,73.575,-63.998,1016.6,-1.18,-999.0,yes,yes,no,300234065713150,BD2GHI,AOML,CCGS_MOLLY_KOOL,North
2019-11-21T00:00:00Z,1574294400,2019,0,0,325.0,325.0,73.573,-63.988,1016.6,-1.22,-999.0,yes,yes,no,300234065713150,BD2GHI,AOML,CCGS_MOLLY_KOOL,North
2019-11-21T01:00:02Z,1574298003,2019,1,0,325.0417,325.0417,73.572,-63.983,1017.1,-1.16,-999.0,yes,yes,no,300234065713150,BD2GHI,AOML,CCGS_MOLLY_KOOL,North
2019-11-21T01:59:57Z,1574301597,2019,2,0,325.0833,325.0833,73.571,-63.98,1017.6,-1.14,-999.0,yes,yes,no,300234065713150,BD2GHI,AOML,CCGS_MOLLY_KOOL,North
2019-11-21T03:00:00Z,1574305200,2019,3,0,325.125,325.125,73.571,-63.98,1017.9,-1.11,-999.0,yes,yes,no,300234065713150,BD2GHI,AOML,CCGS_MOLLY_KOOL,North
2019-11-21T04:00:02Z,1574308803,2019,4,0,325.1667,325.1667,73.571,-63.986,1018.4,-1.14,-999.0,yes,yes,no,300234065713150,BD2GHI,AOML,CCGS_MOLLY_KOOL,North
2019-11-21T04:59:57Z,1574312397,2019,5,0,325.2083,325.2083,73.573,-63.985,1018.7,-1.19,-999.0,yes,yes,no,300234065713150,BD2GHI,AOML,CCGS_MOLLY_KOOL,North
2019-11-21T06:00:00Z,1574316000,2019,6,0,325.25,325.25,73.576,-63.974,1018.1,-1.35,-999.0,yes,yes,no,300234065713150,BD2GHI,AOML,CCGS_MOLLY_KOOL,North
2019-11-21T07:00:02Z,1574319603,2019,7,0,325.2917,325.2917,73.574,-63.944,1018.2,-1.49,-999.0,yes,yes,no,300234065713150,BD2GHI,AOML,CCGS_MOLLY_KOOL,North
2019-11-21T07:59:57Z,1574323197,2019,8,0,325.3333,325.3333,73.574,-63.914,1019.6,-1.55,-999.0,yes,yes,no,300234065713150,BD2GHI,AOML,CCGS_MOLLY_KOOL,North
2019-11-21T09:00:00Z,1574326800,2019,9,0,325.375,325.375,73.578,-63.875,1019.8,-1.47,-999.0,yes,yes,no,300234065713150,BD2GHI,AOML,CCGS_MOLLY_KOOL,North
2019-11-21T10:00:02Z,1574330403,2019,10,0,325.4167,325.4167,73.582,-63.834,1019.7,-1.54,-999.0,yes,yes,no,300234065713150,BD2GHI,AOML,CCGS_MOLLY_KOOL,North
2019-11-21T10:59:57Z,1574333997,2019,11,0,325.4583,325.4583,73.584,-63.787,1019.7,-1.43,-999.0,yes,yes,no,300234065713150,BD2GHI,AOML,CCGS_MOLLY_KOOL,North
2019-11-21T12:00:00Z,1574337600,2019,12,0,325.5,325.5,73.584,-63.745,1019.8,-1.48,-999.0,yes,yes,no,300234065713150,BD2GHI,AOML,CCGS_MOLLY_KOOL,North
2019-11-21T13:00:02Z,1574341203,2019,13,0,325.5417,325.5417,73.581,-63.705,1020.6,-1.35,-999.0,yes,yes,no,300234065713150,BD2GHI,AOML,CCGS_MOLLY_KOOL,North
2019-11-21T13:59:57Z,1574344797,2019,14,0,325.5833,325.5833,73.576,-63.667,1021.7,-1.41,-999.0,yes,yes,no,300234065713150,BD2GHI,AOML,CCGS_MOLLY_KOOL,North
2019-11-21T15:00:00Z,1574348400,2019,15,0,325.625,325.625,73.57,-63.63,1022.5,-1.37,-999.0,yes,yes,no,300234065713150,BD2GHI,AOML,CCGS_MOLLY_KOOL,North
2019-11-21T16:00:02Z,1574352003,2019,16,0,325.6667,325.6667,73.564,-63.595,1020.1,-1.28,-999.0,yes,yes,no,300234065713150,BD2GHI,AOML,CCGS_MOLLY_KOOL,North
2019-11-21T16:59:57Z,1574355597,2019,17,0,325.7083,325.7083,73.561,-63.558,1020.9,-1.24,-999.0,yes,yes,no,300234065713150,BD2GHI,AOML,CCGS_MOLLY_KOOL,North
2019-11-21T18:00:00Z,1574359200,2019,18,0,325.75,325.75,73.56,-63.53,1021.4,-1.35,-999.0,yes,yes,no,300234065713150,BD2GHI,AOML,CCGS_MOLLY_KOOL,North
2019-11-21T19:00:02Z,1574362803,2019,19,0,325.7917,325.7917,73.557,-63.509,1021.6,-1.55,-999.0,yes,yes,no,300234065713150,BD2GHI,AOML,CCGS_MOLLY_KOOL,North
2019-11-21T19:59:57Z,1574366397,2019,20,0,325.8333,325.8333,73.557,-63.495,1024.1,-1.51,-999.0,yes,yes,no,300234065713150,BD2GHI,AOML,CCGS_MOLLY_KOOL,North
2019-11-21T21:00:00Z,1574370000,2019,21,0,325.875,325.875,73.557,-63.485,1022.6,-1.45,-999.0,yes,yes,no,300234065713150,BD2GHI,AOML,CCGS_MOLLY_KOOL,North
2019-11-21T22:00:02Z,1574373603,2019,22,0,325.9167,325.9167,73.557,-63.478,1023.4,-1.44,-999.0,yes,yes,no,300234065713150,BD2GHI,AOML,CCGS_MOLLY_KOOL,North
2019-11-21T22:59:57Z,1574377197,2019,23,0,325.9583,325.9583,73.558,-63.473,1022.5,-1.43,-999.0,yes,yes,no,300234065713150,BD2GHI,AOML,CCGS_MOLLY_KOOL,North
2019-11-22T00:00:00Z,1574380800,2019,0,0,326.0,326.0,73.555,-63.47,1022.0,-1.48,-999.0,yes,yes,no,300234065713150,BD2GHI,AOML,CCGS_MOLLY_KOOL,North
2019-11-22T01:00:02Z,1574384403,2019,1,0,326.0417,326.0417,73.552,-63.472,1022.1,-1.45,-999.0,yes,yes,no,300234065713150,BD2GHI,AOML,CCGS_MOLLY_KOOL,North
2019-11-22T01:59:57Z,1574387997,2019,2,0,326.0833,326.0833,73.55,-63.481,1022.3,-1.43,-999.0,yes,yes,no,300234065713150,BD2GHI,AOML,CCGS_MOLLY_KOOL,North
2019-11-22T03:00:00Z,1574391600,2019,3,0,326.125,326.125,73.548,-63.49,1022.0,-1.44,-999.0,yes,yes,no,300234065713150,BD2GHI,AOML,CCGS_MOLLY_KOOL,North
2019-11-22T04:00:02Z,1574395203,2019,4,0,326.1667,326.1667,73.547,-63.506,1021.8,-1.52,-999.0,yes,yes,no,300234065713150,BD2GHI,AOML,CCGS_MOLLY_KOOL,North
2019-11-22T04:59:57Z,1574398797,2019,5,0,326.2083,326.2083,73.547,-63.522,1021.4,-1.56,-999.0,yes,yes,no,300234065713150,BD2GHI,AOML,CCGS_MOLLY_KOOL,North
2019-11-22T06:00:00Z,1574402400,2019,6,0,326.25,326.25,73.549,-63.537,1020.9,-1.59,-999.0,yes,yes,no,300234065713150,BD2GHI,AOML,CCGS_MOLLY_KOOL,North
2019-11-22T07:00:02Z,1574406003,2019,7,0,326.2917,326.2917,73.549,-63.558,1019.6,-1.59,-999.0,yes,yes,no,300234065713150,BD2GHI,AOML,CCGS_MOLLY_KOOL,North
2019-11-22T07:59:57Z,1574409597,2019,8,0,326.3333,326.3333,73.548,-63.593,1019.4,-1.45,-999.0,yes,yes,no,300234065713150,BD2GHI,AOML,CCGS_MOLLY_KOOL,North
2019-11-22T09:00:00Z,1574413200,2019,9,0,326.375,326.375,73.548,-63.627,1020.4,-1.49,-999.0,yes,yes,no,300234065713150,BD2GHI,AOML,CCGS_MOLLY_KOOL,North
2019-11-22T10:00:02Z,1574416803,2019,10,0,326.4167,326.4167,73.547,-63.664,1018.8,-1.52,-999.0,yes,yes,no,300234065713150,BD2GHI,AOML,CCGS_MOLLY_KOOL,North
2019-11-22T10:59:57Z,1574420397,2019,11,0,326.4583,326.4583,73.55,-63.703,1017.3,-1.51,-999.0,yes,yes,no,300234065713150,BD2GHI,AOML,CCGS_MOLLY_KOOL,North
2019-11-22T12:00:00Z,1574424000,2019,12,0,326.5,326.5,73.552,-63.744,1017.3,-1.69,-999.0,yes,yes,no,300234065713150,BD2GHI,AOML,CCGS_MOLLY_KOOL,North
2019-11-22T13:00:02Z,1574427603,2019,13,0,326.5417,326.5417,73.555,-63.786,1016.7,-1.6,-999.0,yes,yes,no,300234065713150,BD2GHI,AOML,CCGS_MOLLY_KOOL,North
2019-11-22T13:59:57Z,1574431197,2019,14,0,326.5833,326.5833,73.557,-63.831,1015.6,-1.63,-999.0,yes,yes,no,300234065713150,BD2GHI,AOML,CCGS_MOLLY_KOOL,North
2019-11-22T15:00:00Z,1574434800,2019,15,0,326.625,326.625,73.557,-63.867,1015.0,-1.63,-999.0,yes,yes,no,300234065713150,BD2GHI,AOML,CCGS_MOLLY_KOOL,North
2019-11-22T16:00:02Z,1574438403,2019,16,0,326.6667,326.6667,73.557,-63.907,1014.5,-1.67,-999.0,yes,yes,no,300234065713150,BD2GHI,AOML,CCGS_MOLLY_KOOL,North
2019-11-22T16:59:57Z,1574441997,2019,17,0,326.7083,326.7083,73.557,-63.939,1013.6,-1.17,-999.0,yes,yes,no,300234065713150,BD2GHI,AOML,CCGS_MOLLY_KOOL,North
2019-11-22T19:00:02Z,1574449203,2019,19,0,326.7917,326.7917,73.565,-63.96,1012.2,-1.03,-999.0,yes,yes,no,300234065713150,BD2GHI,AOML,CCGS_MOLLY_KOOL,North
2019-11-22T19:59:57Z,1574452797,2019,20,0,326.8333,326.8333,73.572,-63.963,1011.9,-1.01,-999.0,yes,yes,no,300234065713150,BD2GHI,AOML,CCGS_MOLLY_KOOL,North
2019-11-22T21:00:00Z,1574456400,2019,21,0,326.875,326.875,73.579,-63.965,1011.9,-1.02,-999.0,yes,yes,no,300234065713150,BD2GHI,AOML,CCGS_MOLLY_KOOL,North
2019-11-22T22:00:02Z,1574460003,2019,22,0,326.9167,326.9167,73.586,-63.97,1011.5,-0.91,-999.0,yes,yes,no,300234065713150,BD2GHI,AOML,CCGS_MOLLY_KOOL,North
2019-11-22T23:00:57Z,1574463658,2019,23,1,326.959,326.959,73.592,-63.971,1011.1,-0.91,-999.0,yes,yes,no,300234065713150,BD2GHI,AOML,CCGS_MOLLY_KOOL,North
2019-11-23T00:00:00Z,1574467200,2019,0,0,327.0,327.0,73.596,-63.966,1010.9,-0.92,-999.0,yes,yes,no,300234065713150,BD2GHI,AOML,CCGS_MOLLY_KOOL,North
2019-11-23T01:00:02Z,1574470803,2019,1,0,327.0417,327.0417,73.596,-63.957,1010.5,-0.92,-999.0,yes,yes,no,300234065713150,BD2GHI,AOML,CCGS_MOLLY_KOOL,North
2019-11-23T01:59:57Z,1574474397,2019,2,0,327.0833,327.0833,73.594,-63.95,1009.7,-1.24,-999.0,yes,yes,no,300234065713150,BD2GHI,AOML,CCGS_MOLLY_KOOL,North
2019-11-23T03:00:00Z,1574478000,2019,3,0,327.125,327.125,73.588,-63.952,1009.5,-1.21,-999.0,yes,yes,no,300234065713150,BD2GHI,AOML,CCGS_MOLLY_KOOL,North
2019-11-23T04:03:04Z,1574481784,2019,4,3,327.1688,327.1688,73.586,-63.966,1009.8,-0.98,-999.0,yes,yes,no,300234065713150,BD2GHI,AOML,CCGS_MOLLY_KOOL,North
2019-11-23T04:59:57Z,1574485197,2019,5,0,327.2083,327.2083,73.585,-63.987,1010.3,-0.93,-999.0,yes,yes,no,300234065713150,BD2GHI,AOML,CCGS_MOLLY_KOOL,North
2019-11-23T06:04:01Z,1574489042,2019,6,4,327.2528,327.2528,73.588,-64.01,1010.6,-0.94,-999.0,yes,yes,no,300234065713150,BD2GHI,AOML,CCGS_MOLLY_KOOL,North
2019-11-23T07:02:03Z,1574492524,2019,7,2,327.2931,327.2931,73.595,-64.024,1010.3,-0.94,-999.0,yes,yes,no,300234065713150,BD2GHI,AOML,CCGS_MOLLY_KOOL,North
2019-11-23T07:59:57Z,1574495997,2019,8,0,327.3333,327.3333,73.604,-64.033,1010.3,-0.96,-999.0,yes,yes,no,300234065713150,BD2GHI,AOML,CCGS_MOLLY_KOOL,North
2019-11-23T09:00:00Z,1574499600,2019,9,0,327.375,327.375,73.613,-64.035,1010.2,-0.94,-999.0,yes,yes,no,300234065713150,BD2GHI,AOML,CCGS_MOLLY_KOOL,North
2019-11-23T10:00:02Z,1574503203,2019,10,0,327.4167,327.4167,73.622,-64.032,1009.8,-0.92,-999.0,yes,yes,no,300234065713150,BD2GHI,AOML,CCGS_MOLLY_KOOL,North
2019-11-23T10:59:57Z,1574506797,2019,11,0,327.4583,327.4583,73.63,-64.02,1009.5,-0.92,-999.0,yes,yes,no,300234065713150,BD2GHI,AOML,CCGS_MOLLY_KOOL,North
2019-11-23T12:00:00Z,1574510400,2019,12,0,327.5,327.5,73.635,-64.007,1009.2,-0.91,-999.0,yes,yes,no,300234065713150,BD2GHI,AOML,CCGS_MOLLY_KOOL,North
2019-11-23T13:00:02Z,1574514003,2019,13,0,327.5417,327.5417,73.639,-63.998,1008.9,-0.93,-999.0,yes,yes,no,300234065713150,BD2GHI,AOML,CCGS_MOLLY_KOOL,North
2019-11-23T13:59:57Z,1574517597,2019,14,0,327.5833,327.5833,73.64,-63.992,1008.3,-0.92,-999.0,yes,yes,no,300234065713150,BD2GHI,AOML,CCGS_MOLLY_KOOL,North
2019-11-23T15:00:00Z,1574521200,2019,15,0,327.625,327.625,73.64,-63.992,1008.0,-0.92,-999.0,yes,yes,no,300234065713150,BD2GHI,AOML,CCGS_MOLLY_KOOL,North
2019-11-23T16:00:02Z,1574524803,2019,16,0,327.6667,327.6667,73.642,-63.994,1007.9,-0.93,-999.0,yes,yes,no,300234065713150,BD2GHI,AOML,CCGS_MOLLY_KOOL,North
2019-11-23T16:59:57Z,1574528397,2019,17,0,327.7083,327.7083,73.644,-64.004,1007.1,-0.95,-999.0,yes,yes,no,300234065713150,BD2GHI,AOML,CCGS_MOLLY_KOOL,North
2019-11-23T18:00:00Z,1574532000,2019,18,0,327.75,327.75,73.647,-64.015,1006.9,-0.96,-999.0,yes,yes,no,300234065713150,BD2GHI,AOML,CCGS_MOLLY_KOOL,North
2019-11-23T19:00:02Z,1574535603,2019,19,0,327.7917,327.7917,73.654,-64.026,1006.2,-0.99,-999.0,yes,yes,no,300234065713150,BD2GHI,AOML,CCGS_MOLLY_KOOL,North
2019-11-23T19:59:57Z,1574539197,2019,20,0,327.8333,327.8333,73.665,-64.035,1005.2,-1.02,-999.0,yes,yes,no,300234065713150,BD2GHI,AOML,CCGS_MOLLY_KOOL,North
2019-11-23T21:00:00Z,1574542800,2019,21,0,327.875,327.875,73.677,-64.029,1004.3,-1.02,-999.0,yes,yes,no,300234065713150,BD2GHI,AOML,CCGS_MOLLY_KOOL,North
2019-11-23T22:00:02Z,1574546403,2019,22,0,327.9167,327.9167,73.688,-64.011,1003.4,-1.02,-999.0,yes,yes,no,300234065713150,BD2GHI,AOML,CCGS_MOLLY_KOOL,North
2019-11-23T23:01:58Z,1574550118,2019,23,2,327.9597,327.9597,73.699,-63.994,1001.7,-1.04,-999.0,yes,yes,no,300234065713150,BD2GHI,AOML,CCGS_MOLLY_KOOL,North
2019-11-24T00:01:00Z,1574553660,2019,0,1,328.0007,328.0007,73.708,-63.978,1000.3,-1.07,-999.0,yes,yes,no,300234065713150,BD2GHI,AOML,CCGS_MOLLY_KOOL,North
2019-11-24T01:00:02Z,1574557203,2019,1,0,328.0417,328.0417,73.711,-63.963,998.6,-1.04,-999.0,yes,yes,no,300234065713150,BD2GHI,AOML,CCGS_MOLLY_KOOL,North
2019-11-24T01:59:57Z,1574560797,2019,2,0,328.0833,328.0833,73.714,-63.952,997.0,-1.03,-999.0,yes,yes,no,300234065713150,BD2GHI,AOML,CCGS_MOLLY_KOOL,North
2019-11-24T03:00:00Z,1574564400,2019,3,0,328.125,328.125,73.717,-63.949,997.3,-1.03,-999.0,yes,yes,no,300234065713150,BD2GHI,AOML,CCGS_MOLLY_KOOL,North
2019-11-24T04:00:02Z,1574568003,2019,4,0,328.1667,328.1667,73.722,-63.943,997.4,-1.02,-999.0,yes,yes,no,300234065713150,BD2GHI,AOML,CCGS_MOLLY_KOOL,North
2019-11-24T04:59:57Z,1574571597,2019,5,0,328.2083,328.2083,73.726,-63.932,997.6,-1.03,-999.0,yes,yes,no,300234065713150,BD2GHI,AOML,CCGS_MOLLY_KOOL,North
2019-11-24T06:00:00Z,1574575200,2019,6,0,328.25,328.25,73.735,-63.915,998.4,-1.02,-999.0,yes,yes,no,300234065713150,BD2GHI,AOML,CCGS_MOLLY_KOOL,North
2019-11-24T07:00:02Z,1574578803,2019,7,0,328.2917,328.2917,73.74,-63.878,999.5,-1.02,-999.0,yes,yes,no,300234065713150,BD2GHI,AOML,CCGS_MOLLY_KOOL,North
2019-11-24T07:59:57Z,1574582397,2019,8,0,328.3333,328.3333,73.746,-63.842,1000.6,-1.02,-999.0,yes,yes,no,300234065713150,BD2GHI,AOML,CCGS_MOLLY_KOOL,North
2019-11-24T09:00:00Z,1574586000,2019,9,0,328.375,328.375,73.749,-63.806,1001.3,-1.02,-999.0,yes,yes,no,300234065713150,BD2GHI,AOML,CCGS_MOLLY_KOOL,North
2019-11-24T10:00:02Z,1574589603,2019,10,0,328.4167,328.4167,73.749,-63.774,1002.7,-1.01,-999.0,yes,yes,no,300234065713150,BD2GHI,AOML,CCGS_MOLLY_KOOL,North
2019-11-24T10:59:57Z,1574593197,2019,11,0,328.4583,328.4583,73.749,-63.748,1004.1,-1.02,-999.0,yes,yes,no,300234065713150,BD2GHI,AOML,CCGS_MOLLY_KOOL,North
2019-11-24T12:00:00Z,1574596800,2019,12,0,328.5,328.5,73.749,-63.728,1005.5,-1.02,-999.0,yes,yes,no,300234065713150,BD2GHI,AOML,CCGS_MOLLY_KOOL,North
2019-11-24T13:00:02Z,1574600403,2019,13,0,328.5417,328.5417,73.75,-63.71,1006.5,-1.02,-999.0,yes,yes,no,300234065713150,BD2GHI,AOML,CCGS_MOLLY_KOOL,North
2019-11-24T14:03:59Z,1574604239,2019,14,4,328.5861,328.5861,-90.0,-180.0,1007.3,-1.03,-999.0,yes,yes,no,300234065713150,BD2GHI,AOML,CCGS_MOLLY_KOOL,North
2019-11-24T15:04:01Z,1574607842,2019,15,4,328.6278,328.6278,73.754,-63.711,1008.2,-1.02,-999.0,yes,yes,no,300234065713150,BD2GHI,AOML,CCGS_MOLLY_KOOL,North
2019-11-24T16:01:03Z,1574611263,2019,16,1,328.6674,328.6674,73.757,-63.702,1008.9,-1.02,-999.0,yes,yes,no,300234065713150,BD2GHI,AOML,CCGS_MOLLY_KOOL,North
2019-11-24T16:59:57Z,1574614797,2019,17,0,328.7083,328.7083,73.762,-63.685,1009.3,-1.03,-999.0,yes,yes,no,300234065713150,BD2GHI,AOML,CCGS_MOLLY_KOOL,North
2019-11-24T18:00:00Z,1574618400,2019,18,0,328.75,328.75,73.768,-63.662,1010.0,-1.04,-999.0,yes,yes,no,300234065713150,BD2GHI,AOML,CCGS_MOLLY_KOOL,North
2019-11-24T19:00:02Z,1574622003,2019,19,0,328.7917,328.7917,73.771,-63.624,1010.2,-1.04,-999.0,yes,yes,no,300234065713150,BD2GHI,AOML,CCGS_MOLLY_KOOL,North
2019-11-24T19:59:57Z,1574625597,2019,20,0,328.8333,328.8333,73.77,-63.586,1010.9,-1.06,-999.0,yes,yes,no,300234065713150,BD2GHI,AOML,CCGS_MOLLY_KOOL,North
2019-11-24T21:00:00Z,1574629200,2019,21,0,328.875,328.875,73.768,-63.55,1011.1,-1.08,-999.0,yes,yes,no,300234065713150,BD2GHI,AOML,CCGS_MOLLY_KOOL,North
2019-11-24T22:02:03Z,1574632924,2019,22,2,328.9181,328.9181,73.765,-63.519,1011.4,-1.12,-999.0,yes,yes,no,300234065713150,BD2GHI,AOML,CCGS_MOLLY_KOOL,North
2019-11-24T23:03:59Z,1574636639,2019,23,4,328.9611,328.9611,73.761,-63.501,1011.8,-1.14,-999.0,yes,yes,no,300234065713150,BD2GHI,AOML,CCGS_MOLLY_KOOL,North
2019-11-25T00:04:01Z,1574640242,2019,0,4,329.0028,329.0028,73.758,-63.486,1011.9,-1.16,-999.0,yes,yes,no,300234065713150,BD2GHI,AOML,CCGS_MOLLY_KOOL,North
2019-11-25T01:03:56Z,1574643836,2019,1,4,329.0444,329.0444,73.752,-63.502,1012.6,-1.18,-999.0,yes,yes,no,300234065713150,BD2GHI,AOML,CCGS_MOLLY_KOOL,North
2019-11-25T01:59:57Z,1574647197,2019,2,0,329.0833,329.0833,73.751,-63.513,1012.7,-1.2,-999.0,yes,yes,no,300234065713150,BD2GHI,AOML,CCGS_MOLLY_KOOL,North
2019-11-25T03:04:01Z,1574651042,2019,3,4,329.1278,329.1278,73.752,-63.524,1013.0,-1.21,-999.0,yes,yes,no,300234065713150,BD2GHI,AOML,CCGS_MOLLY_KOOL,North
2019-11-25T04:03:56Z,1574654636,2019,4,4,329.1694,329.1694,73.758,-63.528,1013.0,-1.23,-999.0,yes,yes,no,300234065713150,BD2GHI,AOML,CCGS_MOLLY_KOOL,North
2019-11-25T05:00:57Z,1574658058,2019,5,1,329.209,329.209,73.759,-63.525,1012.8,-1.26,-999.0,yes,yes,no,300234065713150,BD2GHI,AOML,CCGS_MOLLY_KOOL,North
2019-11-25T06:02:00Z,1574661721,2019,6,2,329.2514,329.2514,73.761,-63.511,1012.3,-1.26,-999.0,yes,yes,no,300234065713150,BD2GHI,AOML,CCGS_MOLLY_KOOL,North